| time (UTC) | temp C | wind direction | speed KPH | gust KPH | rain 1hr cm | rain 24hr cm | rain mn cm | humidity % | barometer mb |
| 20260506193025 | 14 | 250 | 0.0 | 3.2 | 0.03 | 0.71 | 0.71 | 93 | 1007.3 |
| 20260506192544 | 14 | 281 | 1.6 | 3.2 | 0.03 | 0.71 | 0.71 | 93 | 1007.4 |
| 20260506192023 | 14 | 207 | 0.0 | 4.8 | 0.03 | 0.71 | 0.71 | 93 | 1007.5 |
| 20260506191521 | 14 | 222 | 0.0 | 6.4 | 0.03 | 0.71 | 0.71 | 93 | 1007.5 |
| 20260506191018 | 14 | 288 | 1.6 | 6.4 | 0.03 | 0.71 | 0.71 | 94 | 1007.5 |
| 20260506190515 | 14 | 259 | 0.0 | 1.6 | 0.03 | 0.71 | 0.71 | 94 | 1007.5 |
| 20260506190028 | 14 | 276 | 0.0 | 3.2 | 0.03 | 0.71 | 0.71 | 94 | 1007.6 |
| 20260506185524 | 14 | 250 | 0.0 | 3.2 | 0.03 | 0.71 | 0.71 | 93 | 1007.6 |
| 20260506185022 | 14 | 273 | 0.0 | 6.4 | 0.03 | 0.71 | 0.71 | 94 | 1007.6 |
| 20260506184523 | 14 | 241 | 0.0 | 6.4 | 0.05 | 0.71 | 0.71 | 94 | 1007.6 |
| 20260506184022 | 14 | 221 | 0.0 | 1.6 | 0.05 | 0.71 | 0.71 | 94 | 1007.7 |
| 20260506183521 | 14 | 208 | 0.0 | 1.6 | 0.03 | 0.69 | 0.69 | 93 | 1007.7 |
| 20260506183021 | 14 | 208 | 0.0 | 1.6 | 0.03 | 0.69 | 0.69 | 93 | 1007.8 |
| 20260506182520 | 14 | 195 | 0.0 | 1.6 | 0.05 | 0.69 | 0.69 | 93 | 1007.8 |
| 20260506182018 | 14 | 194 | 0.0 | 1.6 | 0.05 | 0.69 | 0.69 | 93 | 1007.8 |
| 20260506181535 | 14 | 194 | 0.0 | 1.6 | 0.05 | 0.69 | 0.69 | 93 | 1007.9 |
| 20260506181051 | 14 | 238 | 0.0 | 1.6 | 0.05 | 0.69 | 0.69 | 93 | 1008.0 |
| 20260506180527 | 14 | 269 | 0.0 | 0.0 | 0.05 | 0.69 | 0.69 | 93 | 1008.0 |
| 20260506180035 | 14 | 269 | 0.0 | 0.0 | 0.05 | 0.69 | 0.69 | 93 | 1008.0 |
| 20260506175531 | 14 | 239 | 0.0 | 4.8 | 0.05 | 0.69 | 0.69 | 93 | 1008.0 |
| 20260506175030 | 14 | 318 | 0.0 | 4.8 | 0.05 | 0.69 | 0.69 | 93 | 1008.0 |
| 20260506174529 | 14 | 245 | 0.0 | 6.4 | 0.05 | 0.66 | 0.66 | 93 | 1008.0 |
| 20260506174028 | 14 | 205 | 1.6 | 6.4 | 0.05 | 0.66 | 0.66 | 93 | 1008.0 |
| 20260506173527 | 14 | 273 | 0.0 | 1.6 | 0.08 | 0.66 | 0.66 | 93 | 1008.0 |
| 20260506173027 | 14 | 256 | 0.0 | 1.6 | 0.10 | 0.66 | 0.66 | 93 | 1007.9 |
| 20260506172526 | 14 | 210 | 0.0 | 4.8 | 0.08 | 0.64 | 0.64 | 93 | 1008.0 |
| 20260506172026 | 13 | 172 | 0.0 | 4.8 | 0.10 | 0.64 | 0.64 | 93 | 1008.0 |
| 20260506171526 | 13 | 260 | 1.6 | 4.8 | 0.10 | 0.64 | 0.64 | 93 | 1007.9 |
| 20260506171024 | 13 | 215 | 1.6 | 4.8 | 0.10 | 0.64 | 0.64 | 93 | 1008.0 |
| 20260506170523 | 13 | 180 | 0.0 | 3.2 | 0.13 | 0.64 | 0.64 | 93 | 1007.9 |
| 20260506170016 | 13 | 221 | 0.0 | 3.2 | 0.13 | 0.64 | 0.64 | 93 | 1008.0 |
| 20260506165516 | 13 | 270 | 0.0 | 3.2 | 0.15 | 0.64 | 0.64 | 93 | 1008.0 |
| 20260506165016 | 13 | 179 | 0.0 | 3.2 | 0.18 | 0.64 | 0.64 | 93 | 1007.9 |
| 20260506164535 | 13 | 217 | 0.0 | 3.2 | 0.18 | 0.61 | 0.61 | 93 | 1008.0 |
| 20260506164032 | 13 | 215 | 1.6 | 4.8 | 0.20 | 0.61 | 0.61 | 93 | 1007.9 |
| 20260506163530 | 13 | 292 | 0.0 | 1.6 | 0.18 | 0.58 | 0.58 | 93 | 1007.9 |
| 20260506163029 | 13 | 221 | 0.0 | 3.2 | 0.18 | 0.56 | 0.56 | 93 | 1008.0 |
| 20260506162529 | 13 | 245 | 0.0 | 11.3 | 0.20 | 0.56 | 0.56 | 93 | 1008.1 |
| 20260506162028 | 13 | 86 | 1.6 | 11.3 | 0.18 | 0.53 | 0.53 | 93 | 1008.1 |
| 20260506161527 | 13 | 284 | 0.0 | 4.8 | 0.18 | 0.53 | 0.53 | 93 | 1008.2 |
| 20260506161026 | 13 | 194 | 0.0 | 4.8 | 0.18 | 0.53 | 0.53 | 93 | 1008.1 |
| 20260506160525 | 13 | 13 | 1.6 | 4.8 | 0.18 | 0.51 | 0.51 | 93 | 1008.2 |
| 20260506160021 | 13 | 68 | 0.0 | 4.8 | 0.18 | 0.51 | 0.51 | 93 | 1008.3 |
| 20260506155519 | 13 | 228 | 1.6 | 4.8 | 0.18 | 0.48 | 0.48 | 93 | 1008.3 |
| 20260506155016 | 13 | 67 | 0.0 | 3.2 | 0.18 | 0.46 | 0.46 | 93 | 1008.5 |
| 20260506154533 | 13 | 208 | 1.6 | 3.2 | 0.18 | 0.43 | 0.43 | 93 | 1008.6 |
| 20260506154050 | 13 | 49 | 0.0 | 1.6 | 0.15 | 0.41 | 0.41 | 93 | 1008.8 |
| 20260506153528 | 13 | 100 | 0.0 | 3.2 | 0.15 | 0.38 | 0.38 | 93 | 1008.8 |
| 20260506153028 | 13 | 252 | 0.0 | 8.0 | 0.18 | 0.38 | 0.38 | 92 | 1008.8 |
| 20260506152527 | 13 | 207 | 1.6 | 8.0 | 0.15 | 0.36 | 0.36 | 92 | 1008.6 |
| 20260506152026 | 13 | 233 | 0.0 | 3.2 | 0.18 | 0.36 | 0.36 | 92 | 1008.6 |
| 20260506151524 | 13 | 224 | 0.0 | 1.6 | 0.18 | 0.36 | 0.36 | 92 | 1008.6 |
| 20260506151044 | 13 | 224 | 0.0 | 3.2 | 0.20 | 0.36 | 0.36 | 92 | 1008.5 |
| 20260506150522 | 13 | 133 | 0.0 | 3.2 | 0.18 | 0.33 | 0.33 | 92 | 1008.4 |
| 20260506150038 | 14 | 223 | 0.0 | 3.2 | 0.20 | 0.33 | 0.33 | 92 | 1008.4 |
| 20260506145516 | 14 | 217 | 0.0 | 3.2 | 0.20 | 0.30 | 0.30 | 92 | 1008.4 |
| 20260506145014 | 14 | 221 | 0.0 | 3.2 | 0.18 | 0.28 | 0.28 | 92 | 1008.5 |
| 20260506144513 | 14 | 72 | 0.0 | 3.2 | 0.15 | 0.25 | 0.25 | 92 | 1008.4 |
| 20260506144012 | 14 | 212 | 0.0 | 3.2 | 0.15 | 0.23 | 0.23 | 92 | 1008.6 |
| 20260506143513 | 14 | 222 | 0.0 | 3.2 | 0.15 | 0.23 | 0.23 | 92 | 1008.7 |
| 20260506143012 | 13 | 91 | 0.0 | 1.6 | 0.13 | 0.20 | 0.20 | 92 | 1008.7 |
| 20260506142529 | 14 | 89 | 0.0 | 1.6 | 0.15 | 0.20 | 0.20 | 92 | 1008.9 |
| 20260506142028 | 14 | 127 | 0.0 | 1.6 | 0.13 | 0.18 | 0.18 | 92 | 1009.1 |
| 20260506141546 | 14 | 109 | 0.0 | 1.6 | 0.15 | 0.18 | 0.18 | 91 | 1009.1 |
| 20260506141022 | 14 | 226 | 0.0 | 1.6 | 0.13 | 0.15 | 0.15 | 91 | 1009.2 |
| 20260506140519 | 14 | 230 | 0.0 | 1.6 | 0.13 | 0.15 | 0.15 | 91 | 1009.1 |
| 20260506140030 | 14 | 219 | 0.0 | 1.6 | 0.10 | 0.13 | 0.13 | 91 | 1009.3 |
| 20260506135528 | 14 | 173 | 0.0 | 1.6 | 0.08 | 0.10 | 0.10 | 91 | 1009.3 |
| 20260506135045 | 14 | 231 | 0.0 | 1.6 | 0.08 | 0.10 | 0.10 | 91 | 1009.4 |
| 20260506134523 | 14 | 105 | 0.0 | 1.6 | 0.10 | 0.10 | 0.10 | 91 | 1009.4 |
| 20260506134037 | 14 | 130 | 0.0 | 3.2 | 0.08 | 0.08 | 0.08 | 90 | 1009.5 |
| 20260506133515 | 14 | 252 | 0.0 | 3.2 | 0.08 | 0.08 | 0.08 | 90 | 1009.5 |
| 20260506133014 | 14 | 211 | 0.0 | 1.6 | 0.08 | 0.08 | 0.08 | 90 | 1009.6 |
| 20260506132513 | 14 | 70 | 0.0 | 1.6 | 0.05 | 0.05 | 0.05 | 90 | 1009.6 |
| 20260506132012 | 14 | 232 | 0.0 | 1.6 | 0.05 | 0.05 | 0.05 | 89 | 1009.7 |
| 20260506131531 | 14 | 174 | 0.0 | 3.2 | 0.03 | 0.03 | 0.03 | 89 | 1009.7 |
| 20260506131030 | 14 | 252 | 0.0 | 3.2 | 0.03 | 0.03 | 0.03 | 89 | 1009.7 |
| 20260506130549 | 14 | 214 | 0.0 | 1.6 | 0.03 | 0.03 | 0.03 | 89 | 1009.6 |
| 20260506130023 | 14 | 89 | 0.0 | 1.6 | 0.03 | 0.03 | 0.03 | 88 | 1009.5 |
| 20260506125542 | 14 | 268 | 0.0 | 1.6 | 0.03 | 0.03 | 0.03 | 88 | 1009.5 |
| 20260506125020 | 14 | 221 | 0.0 | 3.2 | 0.00 | 0.00 | 0.00 | 88 | 1009.4 |
| 20260506124519 | 14 | 196 | 0.0 | 3.2 | 0.00 | 0.00 | 0.00 | 88 | 1009.3 |
| 20260506124018 | 14 | 85 | 1.6 | 3.2 | 0.00 | 0.00 | 0.00 | 88 | 1009.2 |
| 20260506123517 | 14 | 210 | 0.0 | 1.6 | 0.00 | 0.00 | 0.00 | 87 | 1009.1 |
| 20260506123016 | 14 | 167 | 0.0 | 1.6 | 0.00 | 0.00 | 0.00 | 87 | 1009.1 |
| 20260506122516 | 14 | 219 | 0.0 | 1.6 | 0.00 | 0.00 | 0.00 | 87 | 1009.2 |
| 20260506122034 | 15 | 241 | 0.0 | 3.2 | 0.00 | 0.00 | 0.00 | 86 | 1009.1 |
| 20260506121530 | 15 | 81 | 0.0 | 3.2 | 0.00 | 0.00 | 0.00 | 85 | 1009.3 |
| 20260506121028 | 15 | 214 | 0.0 | 3.2 | 0.00 | 0.00 | 0.00 | 85 | 1009.3 |
| 20260506120526 | 15 | 246 | 0.0 | 3.2 | 0.00 | 0.00 | 0.00 | 84 | 1009.3 |
| 20260506120021 | 15 | 191 | 0.0 | 1.6 | 0.00 | 0.00 | 0.00 | 83 | 1009.3 |
| 20260506115519 | 15 | 153 | 0.0 | 1.6 | 0.00 | 0.00 | 0.00 | 82 | 1009.5 |
| 20260506115018 | 15 | 65 | 0.0 | 1.6 | 0.00 | 0.00 | 0.00 | 81 | 1009.4 |
| 20260506114517 | 15 | 229 | 0.0 | 3.2 | 0.00 | 0.00 | 0.00 | 80 | 1009.4 |
| 20260506114016 | 15 | 193 | 0.0 | 3.2 | 0.00 | 0.00 | 0.00 | 79 | 1009.5 |
| 20260506113515 | 15 | 86 | 0.0 | 1.6 | 0.00 | 0.00 | 0.00 | 78 | 1009.3 |
| 20260506113016 | 15 | 199 | 0.0 | 1.6 | 0.00 | 0.00 | 0.00 | 77 | 1009.3 |
| 20260506112516 | 15 | 85 | 0.0 | 1.6 | 0.00 | 0.00 | 0.00 | 76 | 1009.4 |
| 20260506112016 | 15 | 208 | 0.0 | 1.6 | 0.00 | 0.00 | 0.00 | 76 | 1009.2 |
| 20260506111535 | 15 | 166 | 0.0 | 3.2 | 0.00 | 0.00 | 0.00 | 76 | 1009.4 |
| 20260506111054 | 15 | 236 | 0.0 | 3.2 | 0.00 | 0.00 | 0.00 | 75 | 1009.2 |
| 20260506110553 | 15 | 134 | 0.0 | 1.6 | 0.00 | 0.00 | 0.00 | 75 | 1009.1 |
| 20260506110029 | 15 | 242 | 0.0 | 1.6 | 0.00 | 0.00 | 0.00 | 75 | 1009.2 |
| 20260506105530 | 15 | 249 | 0.0 | 1.6 | 0.00 | 0.00 | 0.00 | 75 | 1008.9 |
| 20260506105050 | 15 | 102 | 0.0 | 3.2 | 0.00 | 0.00 | 0.00 | 75 | 1008.8 |
| 20260506104529 | 15 | 70 | 0.0 | 3.2 | 0.00 | 0.00 | 0.00 | 74 | 1008.8 |
| 20260506104029 | 15 | 143 | 0.0 | 3.2 | 0.00 | 0.00 | 0.00 | 74 | 1008.8 |
| 20260506103529 | 15 | 260 | 0.0 | 0.0 | 0.00 | 0.00 | 0.00 | 73 | 1008.8 |
| 20260506103027 | 15 | 102 | 0.0 | 0.0 | 0.00 | 0.00 | 0.00 | 73 | 1008.9 |
| 20260506102523 | 15 | 103 | 0.0 | 1.6 | 0.00 | 0.00 | 0.00 | 72 | 1008.7 |
| 20260506102020 | 15 | 170 | 0.0 | 1.6 | 0.00 | 0.00 | 0.00 | 72 | 1008.8 |
| 20260506101517 | 15 | 217 | 0.0 | 1.6 | 0.00 | 0.00 | 0.00 | 72 | 1008.8 |
| 20260506101034 | 15 | 120 | 0.0 | 0.0 | 0.00 | 0.00 | 0.00 | 72 | 1008.8 |
| 20260506100529 | 15 | 127 | 0.0 | 0.0 | 0.00 | 0.00 | 0.00 | 71 | 1008.9 |
| 20260506100041 | 15 | 127 | 0.0 | 1.6 | 0.00 | 0.00 | 0.00 | 71 | 1009.0 |
| 20260506095517 | 15 | 128 | 0.0 | 1.6 | 0.00 | 0.00 | 0.00 | 70 | 1009.0 |
| 20260506095014 | 15 | 217 | 0.0 | 0.0 | 0.00 | 0.00 | 0.00 | 70 | 1009.0 |
| 20260506094527 | 15 | 218 | 0.0 | 0.0 | 0.00 | 0.00 | 0.00 | 69 | 1008.9 |
| 20260506094024 | 15 | 218 | 0.0 | 1.6 | 0.00 | 0.00 | 0.00 | 69 | 1009.0 |
| 20260506093521 | 15 | 219 | 0.0 | 1.6 | 0.00 | 0.00 | 0.00 | 69 | 1008.9 |
| 20260506093040 | 15 | 217 | 0.0 | 1.6 | 0.00 | 0.00 | 0.00 | 68 | 1008.9 |
| 20260506092537 | 15 | 194 | 0.0 | 1.6 | 0.00 | 0.00 | 0.00 | 68 | 1009.0 |
| 20260506092015 | 15 | 200 | 0.0 | 0.0 | 0.00 | 0.00 | 0.00 | 67 | 1009.0 |
| 20260506091514 | 16 | 204 | 0.0 | 1.6 | 0.00 | 0.00 | 0.00 | 67 | 1009.1 |
| 20260506091033 | 16 | 82 | 0.0 | 1.6 | 0.00 | 0.00 | 0.00 | 67 | 1009.0 |
| 20260506090552 | 16 | 142 | 0.0 | 1.6 | 0.00 | 0.00 | 0.00 | 66 | 1009.0 |
| 20260506090026 | 16 | 77 | 0.0 | 0.0 | 0.00 | 0.00 | 0.00 | 66 | 1009.0 |
| 20260506085525 | 16 | 162 | 0.0 | 0.0 | 0.00 | 0.00 | 0.00 | 65 | 1009.4 |
| 20260506085025 | 16 | 243 | 0.0 | 0.0 | 0.00 | 0.00 | 0.00 | 65 | 1009.4 |
| 20260506084525 | 16 | 242 | 0.0 | 1.6 | 0.00 | 0.00 | 0.00 | 65 | 1009.3 |
| 20260506084025 | 16 | 280 | 0.0 | 1.6 | 0.00 | 0.00 | 0.00 | 65 | 1009.3 |
| 20260506083525 | 16 | 233 | 0.0 | 1.6 | 0.00 | 0.00 | 0.00 | 64 | 1009.2 |
| 20260506083023 | 16 | 158 | 0.0 | 1.6 | 0.00 | 0.00 | 0.00 | 64 | 1009.1 |
| 20260506082522 | 16 | 212 | 0.0 | 1.6 | 0.00 | 0.00 | 0.00 | 64 | 1009.2 |
| 20260506082021 | 16 | 242 | 0.0 | 1.6 | 0.00 | 0.00 | 0.00 | 64 | 1009.1 |
| 20260506081520 | 16 | 246 | 0.0 | 1.6 | 0.00 | 0.00 | 0.00 | 64 | 1009.1 |
| 20260506081020 | 16 | 236 | 0.0 | 0.0 | 0.00 | 0.00 | 0.00 | 64 | 1009.1 |
| 20260506080519 | 16 | 30 | 0.0 | 1.6 | 0.00 | 0.00 | 0.00 | 63 | 1009.2 |
| 20260506073049 | 16 | 250 | 0.0 | 1.6 | 0.00 | 0.00 | 0.00 | 61 | 1009.4 |
| 20260506072527 | 16 | 250 | 0.0 | 1.6 | 0.00 | 0.00 | 0.00 | 61 | 1009.4 |
| 20260506072046 | 16 | 84 | 0.0 | 3.2 | 0.00 | 0.00 | 0.00 | 61 | 1009.5 |
| 20260506071524 | 16 | 186 | 0.0 | 3.2 | 0.00 | 0.00 | 0.00 | 61 | 1009.4 |
| 20260506071023 | 16 | 300 | 0.0 | 3.2 | 0.00 | 0.00 | 0.00 | 61 | 1009.5 |
| 20260506070542 | 16 | 222 | 0.0 | 3.2 | 0.00 | 0.00 | 0.00 | 61 | 1009.5 |
| 20260506062027 | 16 | 72 | 0.0 | 1.6 | 0.00 | 0.00 | 0.00 | 60 | 1010.0 |
| 20260506061526 | 16 | 130 | 0.0 | 3.2 | 0.00 | 0.00 | 0.00 | 60 | 1010.1 |
| 20260506061044 | 17 | 68 | 0.0 | 3.2 | 0.00 | 0.00 | 0.00 | 60 | 1010.1 |
| 20260506060522 | 17 | 70 | 0.0 | 1.6 | 0.00 | 0.00 | 0.00 | 59 | 1010.1 |
| 20260506051037 | 17 | 131 | 0.0 | 1.6 | 0.00 | 0.00 | 0.00 | 56 | 1010.3 |
| 20260506050533 | 17 | 242 | 0.0 | 3.2 | 0.00 | 0.00 | 0.00 | 55 | 1010.3 |
| 20260506045022 | 18 | 33 | 0.0 | 1.6 | 0.00 | 0.00 | 0.00 | 55 | 1010.4 |
| 20260506044542 | 18 | 29 | 0.0 | 1.6 | 0.00 | 0.00 | 0.00 | 54 | 1010.4 |
| 20260506044021 | 18 | 246 | 0.0 | 1.6 | 0.00 | 0.00 | 0.00 | 54 | 1010.4 |
| 20260506043521 | 18 | 208 | 0.0 | 1.6 | 0.00 | 0.00 | 0.00 | 54 | 1010.4 |
| 20260506043021 | 18 | 240 | 0.0 | 1.6 | 0.00 | 0.00 | 0.00 | 54 | 1010.3 |
| 20260506042520 | 18 | 92 | 0.0 | 4.8 | 0.00 | 0.00 | 0.00 | 53 | 1010.4 |
| 20260506042020 | 18 | 203 | 0.0 | 4.8 | 0.00 | 0.00 | 0.00 | 53 | 1010.3 |
| 20260506041048 | 18 | 181 | 0.0 | 4.8 | 0.00 | 0.00 | 0.00 | 52 | 1010.4 |
| 20260506040526 | 18 | 225 | 0.0 | 1.6 | 0.00 | 0.00 | 0.00 | 53 | 1010.5 |
| 20260506040021 | 18 | 195 | 0.0 | 3.2 | 0.00 | 0.00 | 0.00 | 53 | 1010.5 |
| 20260506035513 | 18 | 155 | 0.0 | 3.2 | 0.00 | 0.00 | 0.00 | 52 | 1010.4 |
| 20260506035031 | 18 | 205 | 0.0 | 3.2 | 0.00 | 0.00 | 0.00 | 52 | 1010.4 |
| 20260506034525 | 18 | 96 | 0.0 | 3.2 | 0.00 | 0.00 | 0.00 | 51 | 1010.5 |
| 20260506034024 | 18 | 177 | 0.0 | 1.6 | 0.00 | 0.00 | 0.00 | 51 | 1010.4 |
| 20260506033525 | 18 | 208 | 0.0 | 0.0 | 0.00 | 0.00 | 0.00 | 51 | 1010.5 |
| 20260506033026 | 18 | 101 | 0.0 | 3.2 | 0.00 | 0.00 | 0.00 | 50 | 1010.4 |
| 20260506032526 | 18 | 187 | 0.0 | 3.2 | 0.00 | 0.00 | 0.00 | 50 | 1010.3 |
| 20260506032026 | 19 | 204 | 0.0 | 3.2 | 0.00 | 0.00 | 0.00 | 50 | 1010.4 |
| 20260506031526 | 19 | 149 | 0.0 | 3.2 | 0.00 | 0.00 | 0.00 | 49 | 1010.4 |
| 20260506031026 | 19 | 243 | 0.0 | 9.7 | 0.00 | 0.00 | 0.00 | 49 | 1010.4 |
| 20260506030545 | 19 | 245 | 0.0 | 9.7 | 0.00 | 0.00 | 0.00 | 49 | 1010.4 |
| 20260506030041 | 19 | 285 | 0.0 | 1.6 | 0.00 | 0.00 | 0.00 | 49 | 1010.4 |
| 20260506025518 | 19 | 257 | 0.0 | 4.8 | 0.00 | 0.00 | 0.00 | 49 | 1010.4 |
| 20260506025016 | 19 | 61 | 0.0 | 4.8 | 0.00 | 0.00 | 0.00 | 49 | 1010.3 |
| 20260506024515 | 19 | 238 | 0.0 | 3.2 | 0.00 | 0.00 | 0.00 | 48 | 1010.4 |
| 20260506024033 | 19 | 194 | 0.0 | 3.2 | 0.00 | 0.00 | 0.00 | 48 | 1010.4 |
| 20260506023550 | 20 | 214 | 0.0 | 4.8 | 0.00 | 0.00 | 0.00 | 48 | 1010.6 |
| 20260506023048 | 20 | 250 | 0.0 | 1.6 | 0.00 | 0.00 | 0.00 | 48 | 1010.5 |
| 20260506022528 | 20 | 243 | 0.0 | 1.6 | 0.00 | 0.00 | 0.00 | 48 | 1010.6 |
| 20260506022022 | 20 | 275 | 0.0 | 1.6 | 0.00 | 0.00 | 0.00 | 47 | 1010.6 |
| 20260506021519 | 20 | 242 | 0.0 | 4.8 | 0.00 | 0.00 | 0.00 | 47 | 1010.6 |
| 20260506021016 | 20 | 186 | 0.0 | 4.8 | 0.00 | 0.00 | 0.00 | 47 | 1010.5 |
| 20260506020513 | 20 | 170 | 0.0 | 3.2 | 0.00 | 0.00 | 0.00 | 46 | 1010.6 |
| 20260506020028 | 20 | 257 | 0.0 | 4.8 | 0.00 | 0.00 | 0.00 | 46 | 1010.5 |
| 20260506015528 | 20 | 198 | 1.6 | 4.8 | 0.00 | 0.00 | 0.00 | 46 | 1010.6 |
| 20260506015028 | 20 | 225 | 0.0 | 3.2 | 0.00 | 0.00 | 0.00 | 46 | 1010.5 |
| 20260506014529 | 20 | 234 | 0.0 | 3.2 | 0.00 | 0.00 | 0.00 | 46 | 1010.4 |
| 20260506014030 | 20 | 208 | 0.0 | 1.6 | 0.00 | 0.00 | 0.00 | 45 | 1010.4 |
| 20260506013512 | 20 | 226 | 0.0 | 1.6 | 0.00 | 0.00 | 0.00 | 46 | 1010.3 |
| 20260506013013 | 20 | 233 | 0.0 | 4.8 | 0.00 | 0.00 | 0.00 | 45 | 1010.3 |
| 20260506012513 | 20 | 212 | 0.0 | 4.8 | 0.00 | 0.00 | 0.00 | 45 | 1010.2 |
| 20260506012013 | 21 | 84 | 0.0 | 4.8 | 0.00 | 0.00 | 0.00 | 44 | 1010.2 |
| 20260506011513 | 21 | 170 | 0.0 | 3.2 | 0.00 | 0.00 | 0.00 | 43 | 1010.0 |
| 20260506011014 | 21 | 184 | 0.0 | 3.2 | 0.00 | 0.00 | 0.00 | 43 | 1010.0 |
| 20260506010514 | 21 | 239 | 0.0 | 4.8 | 0.00 | 0.00 | 0.00 | 43 | 1009.9 |
| 20260506010044 | 21 | 233 | 1.6 | 4.8 | 0.00 | 0.00 | 0.00 | 43 | 1009.8 |
| 20260506005520 | 21 | 68 | 0.0 | 11.3 | 0.00 | 0.00 | 0.00 | 43 | 1009.8 |
| 20260506005017 | 21 | 40 | 1.6 | 11.3 | 0.00 | 0.00 | 0.00 | 43 | 1009.8 |
| 20260506004516 | 21 | 214 | 0.0 | 4.8 | 0.00 | 0.00 | 0.00 | 43 | 1009.7 |
| 20260506004013 | 21 | 220 | 0.0 | 1.6 | 0.00 | 0.00 | 0.00 | 43 | 1009.8 |
| 20260506003530 | 21 | 87 | 0.0 | 1.6 | 0.00 | 0.00 | 0.00 | 43 | 1009.7 |
| 20260506003028 | 21 | 248 | 0.0 | 1.6 | 0.00 | 0.00 | 0.00 | 43 | 1009.6 |
| 20260506002528 | 21 | 215 | 0.0 | 0.0 | 0.00 | 0.00 | 0.00 | 43 | 1009.5 |
| 20260506002028 | 21 | 218 | 0.0 | 0.0 | 0.00 | 0.00 | 0.00 | 43 | 1009.5 |
| 20260506001547 | 21 | 215 | 0.0 | 0.0 | 0.00 | 0.00 | 0.00 | 43 | 1009.5 |
| 20260506001024 | 21 | 214 | 0.0 | 0.0 | 0.00 | 0.00 | 0.00 | 44 | 1009.4 |
| 20260506000523 | 21 | 256 | 0.0 | 0.0 | 0.00 | 0.00 | 0.00 | 43 | 1009.4 |
| 20260506000020 | 21 | 281 | 0.0 | 0.0 | 0.00 | 0.00 | 0.00 | 43 | 1009.4 |
| 20260505235540 | 21 | 194 | 0.0 | 0.0 | 0.00 | 0.00 | 0.00 | 43 | 1009.5 |
| 20260505235018 | 21 | 83 | 0.0 | 0.0 | 0.00 | 0.00 | 0.00 | 42 | 1009.4 |
| 20260505234519 | 21 | 270 | 0.0 | 0.0 | 0.00 | 0.00 | 0.00 | 42 | 1009.4 |
| 20260505234038 | 21 | 215 | 0.0 | 0.0 | 0.00 | 0.00 | 0.00 | 42 | 1009.4 |
| 20260505233516 | 21 | 214 | 0.0 | 0.0 | 0.00 | 0.00 | 0.00 | 41 | 1009.5 |
| 20260505233015 | 21 | 236 | 0.0 | 0.0 | 0.00 | 0.00 | 0.00 | 41 | 1009.4 |
| 20260505232513 | 22 | 217 | 0.0 | 0.0 | 0.00 | 0.00 | 0.00 | 41 | 1009.4 |
| 20260505232032 | 22 | 129 | 0.0 | 0.0 | 0.00 | 0.00 | 0.00 | 41 | 1009.4 |
| 20260505231551 | 22 | 253 | 0.0 | 3.2 | 0.00 | 0.00 | 0.00 | 40 | 1009.4 |
| 20260505231029 | 22 | 262 | 0.0 | 3.2 | 0.00 | 0.00 | 0.00 | 40 | 1009.3 |
| 20260505230548 | 22 | 197 | 1.6 | 4.8 | 0.00 | 0.00 | 0.00 | 40 | 1009.4 |
| 20260505230020 | 22 | 207 | 1.6 | 4.8 | 0.00 | 0.00 | 0.00 | 40 | 1009.3 |
| 20260505225518 | 22 | 231 | 0.0 | 11.3 | 0.00 | 0.00 | 0.00 | 39 | 1009.2 |
| 20260505225036 | 22 | 212 | 0.0 | 11.3 | 0.00 | 0.00 | 0.00 | 39 | 1009.1 |
| 20260505224514 | 22 | 238 | 0.0 | 6.4 | 0.00 | 0.00 | 0.00 | 39 | 1009.0 |
| 20260505224031 | 22 | 221 | 1.6 | 8.0 | 0.00 | 0.00 | 0.00 | 40 | 1009.1 |
| 20260505223528 | 22 | 221 | 1.6 | 8.0 | 0.00 | 0.00 | 0.00 | 39 | 1009.0 |
| 20260505223025 | 22 | 221 | 0.0 | 6.4 | 0.00 | 0.00 | 0.00 | 39 | 1009.1 |
| 20260505222523 | 22 | 269 | 0.0 | 4.8 | 0.00 | 0.00 | 0.00 | 40 | 1009.0 |
| 20260505222041 | 22 | 229 | 0.0 | 4.8 | 0.00 | 0.00 | 0.00 | 40 | 1008.9 |
| 20260505221517 | 22 | 263 | 1.6 | 6.4 | 0.00 | 0.00 | 0.00 | 39 | 1009.0 |
| 20260505221035 | 22 | 238 | 1.6 | 6.4 | 0.00 | 0.00 | 0.00 | 39 | 1009.0 |
| 20260505220531 | 22 | 203 | 1.6 | 6.4 | 0.00 | 0.00 | 0.00 | 39 | 1009.0 |
| 20260505220026 | 22 | 176 | 0.0 | 8.0 | 0.00 | 0.00 | 0.00 | 39 | 1009.0 |
| 20260505215526 | 23 | 264 | 1.6 | 9.7 | 0.00 | 0.00 | 0.00 | 39 | 1008.9 |
| 20260505215025 | 23 | 243 | 0.0 | 9.7 | 0.00 | 0.00 | 0.00 | 38 | 1008.8 |
| 20260505214525 | 23 | 267 | 0.0 | 6.4 | 0.00 | 0.00 | 0.00 | 38 | 1008.8 |
| 20260505214024 | 23 | 266 | 1.6 | 9.7 | 0.00 | 0.00 | 0.00 | 37 | 1008.7 |
| 20260505213522 | 23 | 278 | 3.2 | 9.7 | 0.00 | 0.00 | 0.00 | 35 | 1008.7 |
| 20260505213021 | 23 | 248 | 1.6 | 11.3 | 0.00 | 0.00 | 0.00 | 34 | 1008.7 |
| 20260505212518 | 23 | 277 | 1.6 | 14.5 | 0.00 | 0.00 | 0.00 | 33 | 1008.6 |
| 20260505212015 | 23 | 208 | 6.4 | 14.5 | 0.00 | 0.00 | 0.00 | 33 | 1008.6 |
| 20260505211527 | 23 | 55 | 4.8 | 11.3 | 0.00 | 0.00 | 0.00 | 32 | 1008.5 |
| 20260505211023 | 23 | 246 | 3.2 | 9.7 | 0.00 | 0.00 | 0.00 | 33 | 1008.4 |
| 20260505210540 | 23 | 207 | 0.0 | 9.7 | 0.00 | 0.00 | 0.00 | 33 | 1008.4 |
| 20260505210013 | 23 | 212 | 1.6 | 8.0 | 0.00 | 0.00 | 0.00 | 33 | 1008.4 |
| 20260505205530 | 23 | 192 | 1.6 | 11.3 | 0.00 | 0.00 | 0.00 | 32 | 1008.3 |
| 20260505205027 | 23 | 345 | 1.6 | 11.3 | 0.00 | 0.00 | 0.00 | 32 | 1008.3 |
| 20260505204524 | 23 | 82 | 1.6 | 8.0 | 0.00 | 0.00 | 0.00 | 31 | 1008.4 |
| 20260505204021 | 24 | 290 | 0.0 | 8.0 | 0.00 | 0.00 | 0.00 | 31 | 1008.3 |
| 20260505203519 | 24 | 219 | 1.6 | 12.9 | 0.00 | 0.00 | 0.00 | 32 | 1008.3 |
| 20260505203018 | 25 | 284 | 0.0 | 12.9 | 0.00 | 0.00 | 0.00 | 31 | 1008.3 |
| 20260505202516 | 25 | 51 | 1.6 | 12.9 | 0.00 | 0.00 | 0.00 | 30 | 1008.4 |
| 20260505202015 | 25 | 219 | 3.2 | 8.0 | 0.00 | 0.00 | 0.00 | 31 | 1008.3 |
| 20260505201533 | 25 | 219 | 3.2 | 9.7 | 0.00 | 0.00 | 0.00 | 31 | 1008.3 |
| 20260505201029 | 25 | 288 | 3.2 | 9.7 | 0.00 | 0.00 | 0.00 | 31 | 1008.2 |
| 20260505200529 | 25 | 236 | 1.6 | 8.0 | 0.00 | 0.00 | 0.00 | 32 | 1008.2 |
| 20260505200023 | 25 | 81 | 1.6 | 12.9 | 0.00 | 0.00 | 0.00 | 32 | 1008.0 |
| 20260505195521 | 25 | 253 | 4.8 | 12.9 | 0.00 | 0.00 | 0.00 | 31 | 1008.3 |
| 20260505195040 | 25 | 314 | 6.4 | 12.9 | 0.00 | 0.00 | 0.00 | 31 | 1008.3 |
| 20260505194539 | 25 | 259 | 3.2 | 14.5 | 0.00 | 0.00 | 0.00 | 31 | 1008.3 |
| 20260505194016 | 25 | 269 | 4.8 | 14.5 | 0.00 | 0.00 | 0.00 | 31 | 1008.5 |
| 20260505193515 | 25 | 267 | 3.2 | 8.0 | 0.00 | 0.00 | 0.00 | 32 | 1008.3 |